TimeEDT,TemperatureF,Dew PointF,Humidity,Sea Level PressureIn,VisibilityMPH,Wind Direction,Wind SpeedMPH,Gust SpeedMPH,PrecipitationIn,Events,Conditions,WindDirDegrees,DateUTC
12:15 AM,74.5,71.2,90,30.01,2.5,Calm,Calm,-,N/A,,Clear,0,2013-07-18 04:15:00
12:35 AM,74.5,71.2,90,30.01,10.0,Calm,Calm,-,N/A,,Clear,0,2013-07-18 04:35:00
12:55 AM,74.5,70.9,88,30.01,10.0,Calm,Calm,-,N/A,,Clear,0,2013-07-18 04:55:00
1:15 AM,72.0,68.7,89,30.00,3.0,Calm,Calm,-,N/A,,Clear,0,2013-07-18 05:15:00
1:35 AM,72.0,68.9,90,29.99,4.0,Calm,Calm,-,N/A,,Clear,0,2013-07-18 05:35:00
1:55 AM,72.0,68.9,90,30.00,10.0,Calm,Calm,-,N/A,,Clear,0,2013-07-18 05:55:00
2:15 AM,72.0,68.7,89,30.00,10.0,Calm,Calm,-,N/A,,Clear,0,2013-07-18 06:15:00
2:35 AM,70.7,67.5,89,30.00,7.0,Calm,Calm,-,N/A,,Clear,0,2013-07-18 06:35:00
2:55 AM,70.5,67.3,89,30.01,7.0,Calm,Calm,-,N/A,,Clear,0,2013-07-18 06:55:00
3:15 AM,71.2,68.2,90,30.01,10.0,Calm,Calm,-,N/A,,Clear,0,2013-07-18 07:15:00
3:35 AM,70.2,67.3,91,30.01,4.0,Calm,Calm,-,N/A,,Clear,0,2013-07-18 07:35:00
3:55 AM,69.6,66.7,91,30.01,2.5,Calm,Calm,-,N/A,,Clear,0,2013-07-18 07:55:00
4:15 AM,69.4,66.6,91,30.01,1.2,Calm,Calm,-,N/A,,Mist,0,2013-07-18 08:15:00
4:35 AM,69.4,66.6,91,30.02,3.0,Calm,Calm,-,N/A,,Clear,0,2013-07-18 08:35:00
4:55 AM,69.4,66.6,91,30.02,4.0,Calm,Calm,-,N/A,,Clear,0,2013-07-18 08:55:00
5:15 AM,69.4,67.1,92,30.01,3.0,Calm,Calm,-,N/A,,Clear,0,2013-07-18 09:15:00
5:35 AM,69.4,66.9,92,30.02,0.8,Calm,Calm,-,N/A,,Mist,0,2013-07-18 09:35:00
5:55 AM,69.4,67.1,92,30.02,0.5,Calm,Calm,-,N/A,Fog,Fog,0,2013-07-18 09:55:00
6:15 AM,69.4,67.1,92,30.02,3.0,Calm,Calm,-,N/A,,Clear,0,2013-07-18 10:15:00
6:35 AM,69.4,67.1,92,30.02,2.0,SSE,3.5,-,N/A,,Clear,150,2013-07-18 10:35:00
6:55 AM,70.0,67.3,91,30.02,4.0,Calm,Calm,-,N/A,,Clear,0,2013-07-18 10:55:00
7:15 AM,72.1,69.6,92,30.02,7.0,Calm,Calm,-,N/A,,Clear,0,2013-07-18 11:15:00
7:35 AM,74.5,71.4,90,30.02,10.0,Calm,Calm,-,N/A,,Clear,0,2013-07-18 11:35:00
7:55 AM,74.5,70.5,87,30.03,10.0,Calm,Calm,-,N/A,,Scattered Clouds,0,2013-07-18 11:55:00
8:15 AM,75.7,70.2,83,30.03,10.0,Calm,Calm,-,N/A,,Mostly Cloudy,0,2013-07-18 12:15:00
8:35 AM,77.0,69.8,78,30.03,10.0,SE,3.5,-,N/A,,Mostly Cloudy,140,2013-07-18 12:35:00
8:55 AM,76.5,69.4,79,30.03,10.0,Calm,Calm,-,N/A,,Overcast,0,2013-07-18 12:55:00
9:15 AM,77.0,68.7,75,30.03,10.0,Calm,Calm,-,N/A,,Mostly Cloudy,0,2013-07-18 13:15:00
9:35 AM,78.4,70.0,75,30.03,10.0,Calm,Calm,-,N/A,,Mostly Cloudy,0,2013-07-18 13:35:00
9:55 AM,79.7,69.8,72,30.02,10.0,SSE,3.5,-,N/A,,Mostly Cloudy,150,2013-07-18 13:55:00
10:15 AM,80.8,68.9,67,30.02,10.0,Calm,Calm,-,N/A,,Scattered Clouds,0,2013-07-18 14:15:00
10:35 AM,82.0,68.9,64,30.02,10.0,SW,3.5,-,N/A,,Scattered Clouds,220,2013-07-18 14:35:00
10:55 AM,82.9,69.1,63,30.02,10.0,West,4.6,-,N/A,,Scattered Clouds,260,2013-07-18 14:55:00
11:15 AM,83.1,67.8,60,30.01,10.0,SW,4.6,-,N/A,,Scattered Clouds,220,2013-07-18 15:15:00
11:35 AM,84.0,68.4,59,30.00,10.0,Calm,Calm,-,N/A,,Scattered Clouds,0,2013-07-18 15:35:00
11:55 AM,83.5,68.4,60,30.00,10.0,Calm,Calm,-,N/A,,Scattered Clouds,0,2013-07-18 15:55:00
12:15 PM,87.3,70.5,57,30.00,10.0,Calm,Calm,-,N/A,,Scattered Clouds,0,2013-07-18 16:15:00
12:35 PM,87.4,69.8,56,29.99,10.0,South,3.5,-,N/A,,Scattered Clouds,190,2013-07-18 16:35:00
12:55 PM,89.6,70.2,53,29.99,10.0,WSW,3.5,-,N/A,,Clear,250,2013-07-18 16:55:00
1:15 PM,89.6,70.9,54,29.98,10.0,SSE,4.6,-,N/A,,Scattered Clouds,160,2013-07-18 17:15:00
1:35 PM,89.6,70.5,53,29.98,10.0,Calm,Calm,-,N/A,,Mostly Cloudy,0,2013-07-18 17:35:00
1:55 PM,89.1,71.4,56,29.97,10.0,Calm,Calm,-,N/A,,Mostly Cloudy,0,2013-07-18 17:55:00
2:15 PM,85.8,68.9,57,29.97,10.0,Calm,Calm,-,N/A,,Mostly Cloudy,0,2013-07-18 18:15:00
2:35 PM,87.1,70.3,57,29.97,10.0,Calm,Calm,-,N/A,,Scattered Clouds,0,2013-07-18 18:35:00
2:55 PM,89.6,69.8,52,29.96,10.0,SSW,3.5,-,N/A,,Clear,200,2013-07-18 18:55:00
3:15 PM,89.6,69.3,51,29.95,10.0,WNW,3.5,-,N/A,,Clear,300,2013-07-18 19:15:00
3:35 PM,89.6,69.3,51,29.94,10.0,SW,3.5,-,N/A,,Clear,230,2013-07-18 19:35:00
3:55 PM,89.6,69.6,52,29.93,10.0,WSW,3.5,-,N/A,,Clear,240,2013-07-18 19:55:00
4:15 PM,89.8,69.1,50,29.93,10.0,SW,3.5,-,N/A,,Clear,230,2013-07-18 20:15:00
4:35 PM,89.6,71.2,55,29.92,10.0,WSW,3.5,-,N/A,,Clear,240,2013-07-18 20:35:00
4:55 PM,87.1,72.1,61,29.92,10.0,Calm,Calm,-,N/A,,Clear,0,2013-07-18 20:55:00
5:15 PM,89.6,69.8,52,29.92,10.0,Calm,Calm,-,N/A,,Clear,0,2013-07-18 21:15:00
5:35 PM,84.9,70.7,62,29.92,10.0,WNW,3.5,-,N/A,Rain,Light Rain,290,2013-07-18 21:35:00
6:35 PM,74.5,70.2,86,29.93,1.8,SSE,5.8,-,N/A,Rain,Light Rain,150,2013-07-18 22:35:00
6:55 PM,74.5,70.7,88,29.93,10.0,East,3.5,-,N/A,Rain,Light Rain,100,2013-07-18 22:55:00
7:15 PM,74.5,70.7,88,29.93,10.0,Calm,Calm,-,N/A,,Light Drizzle,0,2013-07-18 23:15:00
7:35 PM,74.5,70.7,88,29.93,7.0,Calm,Calm,-,N/A,Rain,Light Rain,0,2013-07-18 23:35:00
7:55 PM,74.5,70.7,88,29.93,7.0,Calm,Calm,-,N/A,,Mostly Cloudy,0,2013-07-18 23:55:00
8:15 PM,74.5,70.7,88,29.93,10.0,ESE,3.5,-,N/A,,Mostly Cloudy,120,2013-07-19 00:15:00
8:35 PM,74.5,70.9,88,29.92,10.0,East,3.5,-,N/A,,Scattered Clouds,100,2013-07-19 00:35:00
8:55 PM,74.5,70.9,88,29.92,10.0,SE,3.5,-,N/A,,Clear,130,2013-07-19 00:55:00
9:15 PM,74.5,71.1,89,29.92,10.0,SE,3.5,-,N/A,,Scattered Clouds,130,2013-07-19 01:15:00
9:35 PM,74.5,71.2,90,29.93,10.0,Calm,Calm,-,N/A,,Mostly Cloudy,0,2013-07-19 01:35:00
9:55 PM,74.5,71.2,90,29.93,10.0,Calm,Calm,-,N/A,,Mostly Cloudy,0,2013-07-19 01:55:00
10:15 PM,74.5,71.2,90,29.93,10.0,SE,3.5,-,N/A,,Mostly Cloudy,130,2013-07-19 02:15:00
10:35 PM,74.5,71.1,89,29.92,10.0,Calm,Calm,-,N/A,,Scattered Clouds,0,2013-07-19 02:35:00
10:55 PM,74.5,71.1,89,29.92,10.0,Calm,Calm,-,N/A,,Mostly Cloudy,0,2013-07-19 02:55:00
11:15 PM,74.5,71.1,89,29.91,10.0,Calm,Calm,-,N/A,,Mostly Cloudy,0,2013-07-19 03:15:00
11:35 PM,74.5,71.2,90,29.89,10.0,Calm,Calm,-,N/A,Rain,Light Rain,0,2013-07-19 03:35:00
11:55 PM,74.5,70.9,88,29.89,10.0,South,4.6,-,N/A,,Scattered Clouds,170,2013-07-19 03:55:00